Date,TemperatureHighF,TemperatureAvgF,TemperatureLowF,DewpointHighF,DewpointAvgF,DewpointLowF,HumidityHigh,HumidityAvg,HumidityLow,PressureMaxIn,PressureMinIn,WindSpeedMaxMPH,WindSpeedAvgMPH,GustSpeedMaxMPH,PrecipitationSumIn
2013-1-1,45.0,41.4,35.4,39.6,36.3,32.2,89,82,73,30.03,29.48,7,1,7,0.02
2013-1-2,50.9,45.6,40.3,48.5,42.4,36.6,92,89,83,30.30,30.03,6,0,6,0.00
2013-1-3,53.6,49.9,48.0,50.1,47.4,45.3,93,91,88,30.56,30.29,4,0,4,0.00
2013-1-4,51.1,48.7,46.4,46.7,45.1,42.6,91,87,83,30.61,30.55,4,0,4,0.00
2013-1-5,51.6,48.0,44.2,46.8,44.6,41.5,91,88,82,30.56,30.45,5,0,5,0.00
2013-1-6,50.2,47.1,43.2,48.5,44.9,40.7,94,92,89,30.49,30.33,29,0,29,0.00
2013-1-7,49.6,47.7,46.2,46.3,44.7,43.7,92,90,87,30.33,30.17,8,1,8,0.00
2013-1-8,51.1,48.5,45.7,47.9,45.9,43.7,93,91,88,30.19,30.14,6,1,6,0.16
2013-1-9,45.7,40.0,34.7,43.8,37.5,32.8,93,91,86,30.20,30.08,1,0,1,0.00
2013-1-10,35.8,34.6,33.1,34.5,33.1,31.5,95,94,93,30.08,29.93,0,0,0,0.00
2013-1-11,42.4,38.6,35.4,40.8,36.9,33.9,95,93,90,30.07,29.93,1,0,1,0.10
2013-1-12,38.5,35.9,32.2,35.6,32.7,29.1,94,88,79,30.03,29.85,4,0,4,0.00
2013-1-13,36.7,32.1,28.0,32.6,29.3,25.7,93,89,84,30.17,30.03,2,0,2,0.02
2013-1-14,40.6,34.4,32.2,37.0,32.2,29.8,94,92,85,30.08,29.68,4,0,4,0.28
2013-1-15,36.3,31.6,27.1,32.5,28.7,24.8,92,89,82,29.88,29.70,4,0,4,0.00
2013-1-16,30.0,27.3,25.3,28.2,25.4,23.3,94,93,92,30.02,29.83,0,0,0,0.00
2013-1-17,35.6,31.8,27.3,30.2,28.5,25.3,93,87,76,30.03,29.83,2,0,2,0.00
2013-1-18,32.7,29.6,27.1,30.2,27.0,24.6,91,90,87,29.83,29.45,4,0,4,0.00
2013-1-19,31.8,30.3,28.9,28.5,27.8,26.6,91,90,86,29.55,29.44,2,0,2,0.00
2013-1-20,32.9,31.6,30.0,30.6,28.9,26.3,93,90,85,29.54,29.30,2,0,2,0.00
2013-1-21,34.2,31.7,30.0,31.3,29.4,28.0,93,91,87,29.44,29.25,1,0,1,0.00
2013-1-22,33.3,31.0,26.8,31.5,28.6,24.5,93,91,86,29.75,29.44,3,0,3,0.00
2013-1-23,33.1,31.9,30.2,31.3,29.8,27.7,93,92,90,29.86,29.75,2,0,2,0.00
2013-1-24,35.8,31.9,25.9,32.6,27.9,21.4,92,85,74,30.13,29.86,1,0,1,0.02
2013-1-25,35.4,32.1,26.2,33.3,28.1,22.3,92,85,80,30.09,29.45,8,1,8,0.00
2013-1-26,45.7,39.6,34.3,43.8,36.8,32.3,93,90,84,29.78,29.35,18,1,18,0.14
2013-1-27,50.2,48.2,45.7,48.2,46.2,43.8,94,93,87,29.35,29.12,15,4,15,0.04
2013-1-28,49.1,41.1,35.4,44.8,37.1,31.6,91,86,78,29.68,29.33,20,3,20,0.02
2013-1-29,56.5,54.1,50.4,51.9,50.2,45.7,90,87,84,29.48,29.39,22,5,22,0.04
2013-1-30,50.9,47.0,41.9,45.9,40.0,34.7,89,77,56,29.94,29.43,20,4,20,0.04
2013-1-31,48.6,45.0,41.7,40.3,38.2,36.6,88,77,65,29.92,29.66,57,3,18,0.20
2013-2-1,46.0,41.9,39.4,39.0,37.2,35.9,90,84,70,29.77,29.44,8,1,8,0.18
2013-2-2,41.7,35.8,28.9,36.7,29.0,24.7,90,77,56,30.23,29.68,7,0,7,0.00
2013-2-3,47.8,37.2,30.4,44.2,33.5,26.7,89,86,84,30.22,29.84,2,0,2,0.00
2013-2-4,49.6,45.4,37.6,45.6,38.3,32.9,89,76,63,29.92,29.63,14,2,14,0.08
2013-2-5,41.9,37.1,33.4,38.9,32.3,29.0,90,82,70,29.64,29.29,16,2,16,0.16
2013-2-6,42.1,38.6,34.0,38.3,32.3,27.4,89,78,65,30.13,29.40,10,1,10,0.04
2013-2-7,38.7,35.5,29.5,34.7,31.7,26.1,92,86,77,30.14,29.99,1,0,1,0.06
2013-2-8,43.2,38.5,35.1,39.4,35.2,32.9,93,88,81,30.19,30.06,3,0,3,0.02
2013-2-9,39.2,37.0,34.3,37.2,34.9,32.0,93,92,89,30.17,29.81,0,0,0,0.16
2013-2-10,39.4,36.0,32.9,37.4,34.2,31.1,94,93,92,29.81,29.25,4,0,4,0.30
2013-2-11,35.8,33.5,32.5,32.8,31.0,29.9,93,91,86,29.83,29.30,2,0,2,0.14
2013-2-12,34.9,33.4,31.8,30.9,28.4,26.7,91,82,75,30.12,29.83,1,0,1,0.02
2013-2-13,37.6,33.7,31.6,35.7,29.9,26.4,93,86,79,30.13,29.81,8,1,8,0.18
2013-2-14,49.5,43.7,37.6,43.2,40.1,34.7,94,87,75,29.97,29.68,8,1,8,0.24
2013-2-15,48.6,41.2,34.3,40.3,36.1,30.9,91,82,70,30.18,29.96,4,0,4,0.00
2013-2-16,48.0,39.3,30.4,39.7,34.7,28.2,92,84,69,30.22,30.14,4,0,4,0.00
2013-2-17,46.9,38.7,30.9,37.3,33.0,28.1,92,80,62,30.17,30.07,7,0,7,0.00
2013-2-18,46.6,39.0,32.5,36.5,33.6,29.5,89,81,66,30.14,30.07,6,0,6,0.00
2013-2-19,49.3,36.8,26.4,36.5,30.4,24.1,92,79,45,30.12,30.04,2,0,2,0.02
2013-2-20,38.3,35.9,31.6,35.1,31.1,25.3,92,83,73,30.28,30.12,4,0,4,0.00
2013-2-21,36.0,33.0,31.3,26.0,23.7,20.9,77,68,61,30.29,30.22,4,0,4,0.00
2013-2-22,37.2,32.8,31.8,27.8,24.3,22.1,76,71,66,30.22,30.17,0,0,0,0.00
2013-2-23,36.3,33.5,30.9,28.8,26.9,24.9,84,77,70,30.26,30.16,0,0,0,0.00
2013-2-24,38.1,34.8,31.8,33.4,28.0,26.4,83,76,65,30.36,30.26,0,0,0,0.00
2013-2-25,39.0,35.8,32.2,35.2,31.7,27.6,89,85,81,30.48,30.34,0,0,0,0.00
2013-2-26,38.7,37.4,36.3,36.5,34.7,33.0,92,90,84,30.64,30.46,0,0,0,0.00
2013-2-27,44.2,37.6,35.2,38.9,33.2,31.4,90,84,69,30.63,30.54,51,1,51,0.02
2013-2-28,48.7,39.9,32.0,99.9,30.2,24.7,87,69,40,30.55,30.40,0,0,0,0.00
2013-3-1,45.0,41.9,39.0,37.3,34.3,30.8,86,74,63,30.45,30.40,2,0,2,0.00
2013-3-2,47.3,39.7,31.6,35.0,31.4,27.4,84,72,62,30.44,30.26,2,0,2,0.00
2013-3-3,46.6,38.9,28.2,36.6,32.1,24.8,90,77,66,30.27,30.09,5,0,5,0.00
2013-3-4,47.3,40.0,34.9,35.2,32.8,30.4,86,76,60,30.10,29.73,4,0,4,0.00
2013-3-5,55.2,41.0,29.3,43.7,35.1,26.2,91,80,63,29.73,29.57,4,0,4,0.00
2013-3-6,43.5,39.7,35.8,41.0,37.3,34.0,93,91,89,29.59,29.54,5,0,5,0.00
2013-3-7,45.7,42.4,39.9,43.3,40.5,37.7,94,93,91,29.54,29.37,5,0,5,0.26
2013-3-8,43.2,41.5,39.4,41.8,40.1,38.1,95,95,94,29.58,29.38,4,0,4,0.32
2013-3-9,41.0,39.0,35.4,39.2,37.1,32.8,95,93,89,29.72,29.57,5,0,5,0.06
2013-3-10,35.4,33.7,30.4,32.9,29.6,22.8,93,85,67,29.84,29.70,8,2,8,0.02
2013-3-11,33.8,29.5,27.0,24.9,21.5,17.3,83,72,52,29.91,29.83,14,2,14,0.00
2013-3-12,39.6,33.0,27.0,29.0,24.8,18.7,84,72,60,29.94,29.86,15,1,15,0.00
2013-3-13,43.9,36.2,27.9,30.4,27.3,23.1,86,71,48,29.99,29.83,8,0,8,0.00
2013-3-14,46.2,35.9,24.1,34.0,27.7,20.9,89,73,51,30.03,29.81,4,0,4,0.02
2013-3-15,45.7,41.5,37.6,41.3,38.1,33.5,91,88,83,29.81,29.39,13,1,13,0.22
2013-3-16,48.0,41.2,38.1,41.1,37.8,34.9,93,88,68,29.39,29.20,6,0,6,0.26
2013-3-17,43.0,38.9,31.3,37.3,34.2,28.1,92,83,75,29.22,29.15,0,0,0,0.26
2013-3-18,41.5,32.5,27.0,35.8,29.0,24.6,91,87,78,29.35,29.17,2,0,2,0.00
2013-3-19,36.1,36.0,35.8,32.4,32.2,32.0,86,86,85,29.53,29.52,0,0,0,0.00
2013-3-20,40.1,36.7,34.5,34.1,32.5,30.5,91,85,77,30.00,29.53,2,0,2,0.00
2013-3-21,42.4,36.8,32.2,31.8,30.4,28.2,90,78,61,30.01,29.87,12,0,12,0.00
2013-3-22,37.4,34.0,33.1,32.7,31.2,30.7,93,89,81,29.88,29.74,5,0,5,0.30
2013-3-23,33.6,32.3,30.4,31.4,29.9,27.8,93,91,88,29.95,29.79,5,0,5,0.08
2013-3-24,32.7,30.5,28.6,27.8,26.1,24.3,90,84,73,30.04,29.94,7,0,7,0.00
2013-3-25,32.7,31.8,30.7,25.6,25.0,24.1,81,76,73,30.04,30.02,10,2,10,0.00
2013-3-26,36.9,32.8,30.6,26.0,24.2,22.1,81,71,59,30.03,29.95,9,2,9,0.00
2013-3-27,36.7,32.9,30.7,28.6,25.6,22.3,82,74,64,29.96,29.91,8,1,8,0.00
2013-3-28,39.4,32.3,26.8,29.5,24.4,21.6,82,73,59,29.99,29.92,5,0,5,0.00
2013-3-29,40.3,34.5,30.2,27.1,24.0,21.4,75,65,54,29.94,29.82,12,0,12,0.00
2013-3-30,40.8,34.2,27.7,31.1,26.9,22.0,88,75,63,30.00,29.84,8,1,8,0.00
2013-3-31,41.5,33.9,23.5,28.1,24.0,19.4,87,68,53,30.00,29.91,4,0,4,0.00
2013-4-1,38.5,34.9,31.6,28.7,26.4,23.3,82,71,59,29.95,29.88,6,0,6,0.00
2013-4-2,45.5,36.1,27.3,31.3,25.1,20.6,83,66,45,30.14,29.95,7,1,7,0.00
2013-4-3,49.6,37.6,31.3,47.7,25.8,20.4,93,65,38,30.15,29.98,15,2,15,0.00
2013-4-4,42.1,36.9,33.1,29.5,26.3,23.1,85,66,49,30.10,30.02,16,2,16,0.00
2013-4-5,45.5,38.6,32.9,31.6,27.9,25.4,84,66,47,30.20,30.03,12,2,12,0.00
2013-4-6,49.8,39.0,28.6,31.9,27.9,23.6,83,66,47,30.30,30.20,4,0,4,0.00
2013-4-7,49.6,40.3,27.1,32.1,26.9,21.5,82,60,43,30.24,29.86,5,0,5,0.00
2013-4-8,48.4,40.0,33.6,33.1,29.5,25.8,83,67,52,29.86,29.56,8,1,8,0.00
2013-4-9,51.1,41.9,35.2,36.6,33.2,31.1,87,73,49,29.61,29.44,13,2,13,0.00
2013-4-10,51.8,42.8,35.4,39.0,34.6,30.5,83,73,58,29.68,29.47,0,0,0,0.00
2013-4-11,46.0,42.8,39.6,42.0,38.8,35.6,91,86,68,29.48,29.37,0,0,0,0.02
2013-4-12,53.8,45.9,42.3,46.8,42.1,37.9,93,87,68,29.69,29.28,0,0,0,0.10
2013-4-13,52.9,47.8,38.3,50.3,43.8,35.1,91,86,69,29.81,29.68,0,0,0,0.02
2013-4-14,63.0,55.0,50.5,51.6,49.6,46.4,92,83,63,29.82,29.71,0,0,0,0.06
2013-4-15,62.4,54.2,48.7,48.2,45.8,43.5,86,74,51,29.95,29.80,0,0,0,0.00
2013-4-16,62.4,53.7,47.8,46.5,42.9,39.2,89,68,48,30.01,29.75,0,0,0,0.04
2013-4-17,60.6,52.8,45.3,50.4,45.4,38.5,90,76,63,30.01,29.60,0,0,0,0.00
2013-4-18,57.7,50.6,46.9,44.3,38.2,33.7,81,63,46,29.99,29.59,0,0,0,0.00
2013-4-19,53.4,48.2,42.4,40.3,37.3,32.5,83,67,46,30.49,29.99,0,0,0,0.02
2013-4-20,59.5,47.8,34.5,40.7,35.5,30.5,87,65,42,30.52,30.30,0,0,0,0.00
2013-4-21,54.5,46.5,37.0,41.3,36.9,29.7,86,70,55,30.30,29.97,0,0,0,0.00
2013-4-22,57.4,49.3,39.0,47.9,42.7,36.1,90,79,59,29.99,29.86,0,0,0,0.00
2013-4-23,65.5,54.7,44.8,51.2,45.1,40.5,87,71,52,30.19,29.91,0,0,0,0.00
2013-4-24,60.6,54.5,48.2,52.6,48.0,42.7,86,79,71,30.24,30.12,0,0,0,0.00
2013-4-25,63.0,53.2,45.3,52.5,47.3,41.4,89,81,63,30.23,30.06,0,0,0,0.04
2013-4-26,53.4,46.1,40.3,41.4,36.1,27.1,86,70,37,30.10,29.90,0,0,0,0.02
2013-4-27,49.8,42.5,34.9,43.1,35.7,31.4,88,77,62,30.12,29.91,0,0,0,0.08
2013-4-28,56.5,46.6,36.0,43.0,37.6,31.2,88,72,49,30.11,29.81,0,0,0,0.14
2013-4-29,55.9,47.0,38.5,42.3,38.1,33.8,88,72,52,30.18,29.83,0,0,0,0.08
2013-4-30,55.0,46.9,37.9,41.6,36.4,31.7,87,69,49,30.31,30.18,0,0,0,0.00
2013-5-1,59.7,48.7,33.6,40.5,35.4,28.4,84,62,41,30.30,30.17,0,0,0,0.00
2013-5-2,63.5,49.2,38.5,39.6,36.7,33.7,88,65,34,30.25,30.11,0,0,0,0.00
2013-5-3,63.7,53.0,41.5,46.7,40.6,33.9,77,63,53,30.15,29.95,0,0,0,0.00
2013-5-4,61.0,53.7,46.6,47.8,42.4,38.5,81,66,48,30.09,29.88,0,0,0,0.00
2013-5-5,64.9,54.5,44.2,50.2,44.5,38.7,87,70,50,30.15,30.08,0,0,0,0.00
2013-5-6,70.3,56.6,40.8,44.2,40.5,34.9,87,58,34,30.14,29.99,0,0,0,0.00
2013-5-7,72.5,60.7,45.1,48.6,43.8,38.9,80,56,35,30.03,29.80,0,0,0,0.00
2013-5-8,65.1,56.5,47.1,53.7,46.2,38.3,88,69,51,29.80,29.58,0,0,0,0.02
2013-5-9,55.0,49.0,43.9,46.5,41.7,38.0,88,77,55,29.73,29.45,0,0,0,0.12
2013-5-10,61.3,51.9,46.8,50.0,44.1,39.8,88,75,59,29.83,29.52,0,0,0,0.02
2013-5-11,54.7,46.8,42.4,47.7,41.0,36.6,88,80,70,29.86,29.73,0,0,0,0.16
2013-5-12,54.0,48.8,41.9,49.7,43.4,37.0,90,82,66,29.96,29.81,0,0,0,0.08
2013-5-13,54.9,49.3,41.9,48.6,39.5,35.3,90,69,52,29.84,29.73,0,0,0,0.00
2013-5-14,55.4,45.3,39.4,52.5,39.2,34.9,91,80,61,29.91,29.16,0,0,0,0.59
2013-5-15,54.0,46.5,40.8,44.3,40.3,38.1,92,80,57,29.53,29.05,0,0,0,0.36
2013-5-16,58.3,49.1,36.7,42.3,38.3,33.5,91,68,44,29.56,29.46,0,0,0,0.02
2013-5-17,56.5,49.8,45.1,44.3,42.8,40.7,89,77,58,29.83,29.56,2,0,2,0.00
2013-5-18,57.0,51.3,46.2,46.9,44.5,41.6,88,78,66,29.82,29.69,6,0,6,0.00
2013-5-19,64.6,58.9,49.8,49.5,47.7,44.2,82,67,56,29.93,29.88,6,1,6,0.00
2013-5-20,60.4,54.7,48.9,54.6,50.4,44.0,91,85,80,29.97,29.88,6,1,6,0.02
2013-5-21,55.6,51.4,46.9,51.7,47.8,42.0,93,88,79,30.11,29.96,6,1,6,0.00
2013-5-22,55.9,49.5,43.5,45.8,40.9,35.8,88,73,53,30.12,30.04,10,1,10,0.00
2013-5-23,52.2,44.8,40.6,41.0,37.3,35.0,85,75,53,30.04,29.89,5,0,5,0.12
2013-5-24,51.6,45.7,40.6,42.4,38.5,36.5,85,76,65,30.12,29.75,14,2,14,0.02
2013-5-25,61.3,50.8,37.9,42.2,37.9,33.7,88,64,43,30.20,30.11,4,0,4,0.00
2013-5-26,65.8,54.8,42.1,43.7,39.5,34.5,81,58,37,30.15,29.90,6,0,6,0.00
2013-5-27,61.5,51.8,41.2,43.5,40.7,34.2,80,66,48,29.90,29.57,20,3,20,0.00
2013-5-28,52.7,49.1,46.6,50.1,45.8,41.9,91,88,80,29.59,29.45,6,0,6,0.44
2013-5-29,58.8,51.8,47.1,52.3,48.8,44.9,92,90,76,29.82,29.56,5,1,5,0.26
2013-5-30,60.6,55.6,52.3,53.4,51.3,49.6,93,86,76,30.04,29.79,4,0,4,0.18
2013-5-31,69.6,58.3,50.9,55.3,50.2,44.3,89,75,53,30.15,30.04,6,0,6,0.00
2013-6-1,60.1,53.4,45.1,45.2,42.8,40.1,83,68,53,30.31,30.15,8,1,8,0.00
2013-6-2,63.1,54.8,47.1,45.3,43.0,39.9,86,66,47,30.43,30.30,7,0,7,0.00
2013-6-3,67.5,57.3,45.0,48.8,45.1,40.4,88,65,47,30.48,30.38,7,0,7,0.00
2013-6-4,66.9,57.8,46.0,49.0,44.4,38.9,81,62,48,30.42,30.23,10,1,10,0.00
2013-6-5,59.2,54.2,49.6,49.6,47.3,44.2,83,78,69,30.23,30.12,4,0,4,0.00
2013-6-6,66.4,54.3,46.9,51.3,46.5,43.3,90,76,56,30.23,30.14,10,1,10,0.00
2013-6-7,69.6,57.6,45.7,53.4,45.7,41.6,89,67,42,30.26,30.19,13,2,13,0.00
2013-6-8,63.5,55.2,47.8,49.2,46.4,43.7,87,73,58,30.25,30.08,9,2,9,0.00
2013-6-9,64.6,55.0,48.4,49.6,45.9,43.0,83,72,56,30.09,29.94,7,1,7,0.00
2013-6-10,59.7,53.9,48.9,45.6,44.1,41.9,79,70,59,30.00,29.90,6,0,6,0.00
2013-6-11,66.9,56.5,49.1,58.2,50.3,42.9,87,80,70,29.91,29.78,6,1,6,0.00
2013-6-12,66.0,59.9,55.4,57.2,54.3,50.2,90,82,62,29.78,29.66,12,3,12,0.10
2013-6-13,66.2,57.2,52.0,55.4,51.0,46.2,89,80,67,29.95,29.63,11,2,11,0.51
2013-6-14,63.7,55.4,47.5,57.4,48.8,43.5,88,79,60,29.98,29.66,14,2,14,0.08
2013-6-15,60.1,54.1,48.2,51.4,47.5,44.3,88,79,61,29.76,29.60,10,2,10,0.20
2013-6-16,63.0,57.2,50.4,50.8,48.7,45.8,86,74,58,29.96,29.76,8,1,8,0.00
2013-6-17,64.0,57.8,53.8,52.1,49.7,46.9,84,75,63,29.99,29.93,6,1,6,0.04
2013-6-18,71.4,61.1,51.1,61.0,53.6,46.3,86,77,66,30.00,29.91,4,0,4,0.00
2013-6-19,73.2,64.4,56.5,58.9,54.4,47.7,85,70,59,30.00,29.93,6,1,6,0.00
2013-6-20,66.7,60.3,53.6,61.5,54.9,46.7,92,83,72,29.99,29.75,4,0,4,0.41
2013-6-21,71.2,62.8,55.8,59.4,56.4,47.9,94,80,62,29.80,29.73,6,1,6,0.02
2013-6-22,65.1,57.1,52.0,54.5,50.6,47.4,91,79,65,29.75,29.53,12,2,12,0.10
2013-6-23,60.6,55.2,51.4,55.3,50.0,44.1,91,83,74,30.01,29.55,9,1,9,0.14
2013-6-24,63.5,55.1,49.6,47.7,44.8,42.6,78,69,54,30.30,30.01,5,1,5,0.00
2013-6-25,67.6,58.0,44.8,50.2,46.8,41.1,88,68,46,30.41,30.29,4,0,4,0.00
2013-6-26,68.4,59.2,52.5,54.7,49.5,45.5,84,71,55,30.42,30.35,8,1,8,0.00
2013-6-27,63.3,55.2,50.9,52.8,48.5,45.1,92,79,58,30.41,30.15,4,0,4,0.20
2013-6-28,66.4,60.1,55.2,60.9,56.7,52.9,93,89,78,30.15,30.03,5,0,5,0.08
2013-6-29,69.3,59.5,51.8,54.9,50.3,47.0,90,73,50,30.23,30.09,5,0,5,0.00
2013-6-30,73.6,63.6,56.3,58.8,55.2,51.8,90,75,56,30.22,29.99,12,2,12,0.00
2013-7-1,64.8,58.2,52.3,52.6,48.4,45.3,83,71,54,30.00,29.95,9,1,9,0.00
2013-7-2,62.1,56.6,50.5,53.6,49.8,45.1,88,78,67,29.97,29.56,13,1,13,0.02
2013-7-3,63.5,59.6,54.0,56.2,53.8,48.9,92,82,71,29.96,29.55,5,0,5,0.06
2013-7-4,72.5,63.4,53.4,60.1,54.6,48.7,89,74,54,30.25,29.94,9,1,9,0.00
2013-7-5,76.1,69.3,55.2,57.2,54.4,48.8,79,60,49,30.38,30.25,4,0,4,0.00
2013-7-6,79.5,68.9,57.4,59.1,55.6,52.1,86,65,42,30.38,30.31,5,0,5,0.00
2013-7-7,81.9,76.0,68.4,62.9,60.7,57.5,77,60,46,30.49,30.43,6,1,6,0.00
2013-7-8,75.4,68.0,59.7,60.7,56.6,52.8,84,68,51,30.52,30.44,7,1,7,0.00
2013-7-9,79.9,67.9,54.3,60.3,52.5,41.6,90,62,30,30.45,30.25,5,1,5,0.00
2013-7-10,70.3,65.3,59.0,60.0,56.6,47.9,84,74,53,30.30,30.25,4,1,4,0.00
2013-7-11,72.7,62.0,52.3,53.8,49.6,45.3,82,65,44,30.31,30.21,5,0,5,0.00
2013-7-12,81.0,68.0,53.4,61.8,56.0,48.7,86,67,47,30.27,30.18,4,0,4,0.00
2013-7-13,85.1,72.4,59.9,64.0,58.2,51.6,76,62,47,30.25,30.19,5,0,5,0.00
2013-7-14,79.5,68.4,58.1,59.1,55.4,49.6,89,65,41,30.25,30.16,5,0,5,0.00
2013-7-15,82.9,68.9,55.4,63.1,55.7,49.0,81,64,45,30.22,30.15,4,0,4,0.00
2013-7-16,81.0,68.3,55.9,61.7,56.1,51.2,86,67,43,30.21,30.15,5,0,4,0.00
2013-7-17,82.6,69.6,57.0,62.7,57.7,52.6,88,68,46,30.28,30.20,6,0,6,0.00
2013-7-18,83.5,72.6,60.4,60.8,57.4,54.7,85,61,42,30.30,30.25,10,0,10,0.00
2013-7-19,82.8,72.7,60.1,59.9,56.6,53.0,80,58,44,30.29,30.20,5,1,5,0.00
2013-7-20,73.2,66.5,61.5,60.3,58.4,55.6,88,76,62,30.26,30.16,6,1,6,0.00
2013-7-21,68.5,62.6,57.9,60.7,57.1,54.2,89,82,75,30.19,30.04,6,1,6,0.00
2013-7-22,83.1,69.1,-12.3,66.6,60.9,-13.7,93,77,57,30.07,29.88,6,0,6,0.00
2013-7-23,77.2,70.4,64.9,67.0,63.1,58.8,92,78,61,29.92,29.83,6,0,6,0.77
2013-7-24,78.6,69.7,60.6,61.0,57.6,53.1,86,67,43,29.92,29.83,5,0,5,0.00
2013-7-25,78.1,68.0,60.6,62.7,57.9,53.2,90,72,51,29.87,29.80,4,0,4,0.02
2013-7-26,76.8,67.3,58.3,57.8,53.5,49.7,84,63,41,29.88,29.81,4,0,4,0.00
2013-7-27,78.6,65.5,55.8,58.4,55.1,51.3,90,71,43,29.82,29.55,4,0,4,0.75
2013-7-28,72.7,64.7,58.1,59.4,57.3,55.3,92,78,58,29.68,29.54,9,2,9,0.35
2013-7-29,73.8,63.7,59.0,62.8,57.4,53.5,90,80,62,29.89,29.66,10,1,10,0.16
2013-7-30,71.8,63.7,55.9,60.1,55.1,51.5,90,74,57,29.90,29.81,4,0,4,0.00
2013-7-31,69.6,62.2,57.6,66.6,58.1,53.4,91,87,75,29.95,29.84,6,0,6,0.16
2013-8-1,87.6,72.9,61.5,68.6,63.1,58.6,90,74,44,29.86,29.60,9,1,9,0.00
2013-8-2,76.5,67.7,59.2,63.5,60.0,55.5,88,77,56,29.75,29.65,10,1,10,0.49
2013-8-3,72.9,64.0,55.8,60.7,54.5,51.5,90,73,52,30.01,29.72,13,1,13,0.04
2013-8-4,65.5,61.4,57.0,61.3,56.9,53.0,89,85,75,30.03,29.92,12,1,12,0.10
2013-8-5,66.2,60.8,53.8,61.6,57.5,50.0,91,89,84,29.93,29.74,6,1,6,0.32
2013-8-6,67.8,59.0,49.1,53.0,49.7,46.8,92,73,53,30.01,29.91,2,0,2,0.00
2013-8-7,71.2,60.3,51.6,54.9,50.4,46.3,84,71,49,29.95,29.92,4,0,4,0.00
2013-8-9,66.9,62.1,58.3,57.9,53.4,48.7,90,74,61,30.17,29.94,2,0,2,0.02
2013-8-10,66.9,61.1,56.1,53.9,49.7,45.5,84,67,50,30.17,30.07,2,0,2,0.00
2013-8-11,68.5,60.9,55.6,55.4,51.5,47.2,89,72,48,30.08,29.96,4,0,4,0.00
2013-8-12,66.0,59.0,54.1,52.0,49.6,47.4,84,72,57,30.09,29.96,4,0,4,0.00
2013-8-13,65.1,57.1,49.6,57.4,50.6,45.0,86,79,72,30.19,30.08,2,0,2,0.06
2013-8-14,66.2,59.9,48.4,60.6,54.4,45.6,91,83,67,30.19,30.06,6,0,6,0.02
2013-8-15,76.1,66.6,61.2,65.6,60.5,57.6,91,81,63,30.06,29.90,7,1,7,0.08
2013-8-16,72.3,64.4,57.0,61.0,57.5,50.6,92,79,58,29.96,29.84,8,1,8,0.39
2013-8-17,66.4,60.2,54.9,59.0,55.3,50.0,90,84,74,29.95,29.61,12,1,12,0.04
2013-8-18,70.7,62.7,55.2,56.0,51.9,47.4,88,69,47,29.88,29.62,8,0,8,0.00
2013-8-19,67.3,60.2,51.4,52.5,49.7,47.3,87,69,54,30.26,29.88,4,0,4,0.00
2013-8-20,73.0,63.3,54.1,58.1,52.9,48.5,86,70,52,30.31,30.23,2,0,2,0.00
2013-8-21,71.4,63.6,55.9,61.0,55.3,49.2,84,75,64,30.26,30.09,6,0,6,0.00
2013-8-22,76.5,67.3,60.1,63.1,59.2,55.9,91,76,57,30.10,29.97,7,0,7,0.00
2013-8-23,73.6,66.5,59.5,62.0,59.5,56.0,89,79,64,30.00,29.84,4,0,4,0.02
2013-8-24,65.5,60.5,55.2,59.1,54.5,47.2,91,81,66,29.91,29.83,3,0,3,0.04
2013-8-25,71.4,61.7,52.7,62.3,55.3,47.6,87,80,72,30.09,29.88,4,0,4,0.00
2013-8-26,74.8,65.0,57.9,60.0,56.2,50.8,89,74,55,30.13,30.04,4,0,4,0.00
2013-8-27,72.3,61.9,53.2,59.9,54.2,50.0,92,77,51,30.14,30.04,2,0,2,0.00
2013-8-28,67.6,61.0,56.3,58.6,55.8,51.2,91,83,71,30.20,30.14,1,0,1,0.00
2013-8-29,71.2,61.8,51.1,59.7,55.0,47.6,89,79,65,30.16,30.07,3,0,3,0.00
2013-8-30,73.8,64.7,57.9,61.2,58.1,55.1,92,80,62,30.11,29.99,4,0,4,0.00
2013-8-31,65.7,57.6,50.0,57.0,45.3,42.2,80,65,46,30.40,30.11,2,0,2,0.00
2013-9-1,70.3,57.3,48.0,52.2,47.8,43.0,85,71,51,30.40,30.30,2,0,2,0.00
2013-9-2,72.0,62.1,53.2,60.3,54.6,48.8,86,77,65,30.33,30.26,2,0,2,0.00
2013-9-3,73.2,63.1,54.0,61.0,56.3,50.8,92,79,62,30.33,30.21,0,0,0,0.00
2013-9-4,78.3,65.0,50.7,61.0,55.5,47.9,92,73,51,30.22,29.93,2,0,2,0.00
2013-9-5,71.2,60.9,51.6,58.5,53.3,48.5,90,77,55,29.93,29.80,1,0,1,0.00
2013-9-6,57.7,54.1,48.9,54.2,50.5,46.1,92,88,79,29.82,29.71,0,0,0,0.47
2013-9-7,62.8,52.7,46.9,49.7,46.7,42.7,92,81,56,29.98,29.74,2,0,2,0.02
2013-9-8,61.3,51.9,43.5,48.5,45.3,40.2,91,79,58,30.01,29.97,1,0,1,0.04
2013-9-9,62.8,53.6,48.4,53.6,48.5,45.3,92,83,61,30.08,29.95,1,0,1,0.14
2013-9-10,59.7,52.3,47.8,53.0,47.6,44.8,90,85,67,30.19,30.07,1,0,1,0.00
2013-9-11,57.9,54.7,52.0,53.3,51.5,49.1,92,89,82,30.20,30.08,0,0,0,0.02
2013-9-12,69.6,60.7,54.5,59.6,56.3,52.3,94,86,64,30.09,30.00,2,0,2,0.04
2013-9-13,62.4,56.4,49.1,59.5,52.3,45.9,93,86,69,30.07,29.98,0,0,0,0.30
2013-9-14,59.2,51.8,45.1,51.2,47.0,40.9,92,84,65,30.07,29.94,0,0,0,0.00
2013-9-15,59.2,50.5,42.6,56.6,46.5,39.6,91,86,73,30.06,29.46,10,1,10,0.04
2013-9-16,57.6,49.8,44.1,43.9,41.5,39.2,84,74,55,29.59,29.52,8,0,8,0.00
2013-9-17,52.7,49.6,46.6,48.5,45.0,40.7,92,84,76,29.59,29.35,2,0,2,0.18
2013-9-18,57.6,52.1,48.4,50.1,46.2,43.4,93,81,63,29.83,29.42,4,0,4,0.00
2013-9-19,64.6,54.7,48.7,59.1,48.1,43.2,90,79,62,29.85,29.64,9,0,9,0.06
2013-9-20,61.7,56.2,53.2,49.7,47.9,46.0,81,74,62,30.16,29.84,1,0,1,0.00
2013-9-21,71.4,60.0,50.5,61.4,53.7,44.8,88,80,68,30.25,30.13,4,0,4,0.00
2013-9-22,71.8,64.3,56.1,59.4,57.9,52.6,91,81,64,30.33,30.25,4,0,4,0.00
2013-9-23,64.2,60.5,55.2,59.4,56.9,51.9,91,88,83,30.30,30.07,0,0,0,0.00
2013-9-24,69.3,61.0,57.0,59.8,56.4,53.8,91,85,70,30.08,29.89,1,0,1,0.00
2013-9-25,69.6,61.4,55.9,61.4,57.2,53.6,93,87,74,29.90,29.81,0,0,0,0.00
2013-9-26,61.9,57.1,52.7,54.7,50.2,48.1,89,78,67,30.04,29.90,2,0,2,0.00
2013-9-27,64.6,58.2,52.3,52.2,49.6,47.1,85,73,59,30.03,29.89,1,0,1,0.00
2013-9-28,65.3,57.0,48.6,53.7,48.7,44.1,91,75,57,29.90,29.74,2,0,2,0.00
2013-9-29,65.1,56.4,51.3,52.2,49.3,46.9,88,78,61,29.78,29.70,6,0,6,0.00
2013-9-30,64.2,57.8,53.4,55.6,51.2,47.3,86,79,67,29.78,29.68,4,0,4,0.00
2013-10-1,62.6,55.9,49.8,54.9,49.9,45.8,88,80,71,29.79,29.74,8,0,8,0.00
2013-10-2,66.6,59.8,54.9,60.2,55.4,49.1,91,85,78,29.81,29.73,4,0,4,0.04
2013-10-3,64.4,61.2,58.3,61.5,58.4,56.0,93,91,88,29.81,29.58,9,0,9,0.10
2013-10-4,67.8,61.3,56.1,62.1,58.1,52.9,93,89,81,29.91,29.55,7,0,7,0.14
2013-10-5,62.8,57.9,55.6,55.9,52.2,49.1,93,82,63,30.21,29.91,1,0,1,0.02
2013-10-6,65.5,56.1,44.6,55.3,50.3,41.8,92,81,67,30.25,30.19,5,0,5,0.00
2013-10-7,65.5,58.5,52.7,58.0,54.1,49.7,92,85,76,30.23,30.18,2,0,2,0.00
2013-10-8,68.5,60.1,56.1,60.0,54.2,50.2,90,81,62,30.24,30.16,4,0,4,0.00
2013-10-9,58.8,53.1,46.2,51.4,46.4,38.9,86,78,64,30.22,30.01,4,0,4,0.02
2013-10-10,51.8,48.4,45.0,40.1,39.0,37.3,75,70,64,30.21,30.18,3,0,3,0.00
2013-10-11,56.3,49.8,43.5,50.9,45.3,37.1,90,85,75,30.24,30.12,8,1,8,0.12
2013-10-12,55.4,52.3,49.5,53.1,49.5,45.4,92,90,85,30.20,30.03,10,1,10,0.30
2013-10-13,51.1,49.6,48.0,48.8,47.5,45.2,93,93,90,30.03,29.78,2,0,2,0.28
2013-10-14,48.9,47.6,46.9,46.4,45.2,44.4,92,91,90,29.79,29.72,0,0,0,0.36
2013-10-15,55.9,52.4,46.9,51.2,48.9,45.3,94,88,83,29.93,29.81,1,0,1,0.00
2013-10-16,57.7,52.6,46.9,54.3,48.7,45.0,93,87,77,29.78,29.56,6,0,6,0.14
2013-10-17,62.1,56.2,51.3,54.9,51.4,47.4,91,84,74,29.94,29.83,6,0,6,0.00
2013-10-18,58.8,54.3,46.9,55.7,51.6,44.4,94,91,86,29.97,29.70,4,0,4,0.02
2013-10-19,63.7,56.4,52.3,58.6,53.6,49.8,94,90,79,29.70,29.54,6,0,6,0.12
2013-10-20,62.2,55.7,52.7,55.3,52.2,49.8,93,88,74,29.63,29.51,5,0,4,0.24
2013-10-21,60.6,57.0,52.3,58.6,54.7,49.5,93,92,90,29.65,29.47,15,1,15,0.30
2013-10-22,62.1,59.3,56.8,58.5,56.3,53.9,92,90,87,29.31,29.21,7,1,7,0.26
2013-10-23,57.7,52.1,45.0,54.4,45.0,40.4,93,77,58,29.78,29.20,10,0,10,0.08
2013-10-24,60.3,52.2,43.5,52.8,47.5,40.5,92,84,73,29.93,29.76,2,0,2,0.00
2013-10-25,63.7,57.6,53.2,58.0,53.5,50.0,94,86,74,29.76,29.49,12,1,12,0.12
2013-10-26,60.6,56.6,50.5,55.4,52.3,47.5,91,86,74,29.57,29.37,6,0,6,0.10
2013-10-27,58.3,52.7,48.9,50.6,47.8,46.1,91,84,72,29.37,29.15,16,0,16,0.00
2013-10-28,54.3,49.1,45.0,48.2,45.2,40.9,93,86,75,29.50,28.86,2,0,2,0.40
2013-10-29,53.2,46.9,41.4,44.1,41.2,37.7,89,81,64,30.01,29.50,4,0,4,0.00
2013-10-30,56.3,52.9,42.4,49.5,47.3,39.1,91,81,73,30.08,29.94,6,1,6,0.00
2013-10-31,52.0,51.4,50.7,49.3,48.9,48.2,91,91,91,29.97,29.93,2,0,2,0.02
2013-11-1,54.3,50.4,46.8,52.0,48.3,44.8,93,92,91,29.74,29.57,2,0,2,0.18
2013-11-2,48.0,47.0,46.0,44.8,40.9,39.6,93,79,77,29.58,29.21,4,0,4,0.02
2013-11-3,50.2,44.9,42.1,43.6,39.3,36.5,89,81,72,29.49,29.16,4,0,4,0.02
2013-11-4,39.9,39.5,38.8,36.3,35.9,35.3,88,87,86,29.44,29.42,0,0,0,0.02
2013-11-5,52.0,48.0,44.4,47.3,42.8,39.0,92,82,74,29.42,29.16,4,0,4,0.06
2013-11-6,56.5,51.9,47.8,54.5,49.8,45.6,93,93,92,29.52,29.31,2,0,2,0.26
2013-11-7,50.4,46.6,42.4,43.5,41.5,39.3,90,82,74,29.70,29.66,2,0,2,0.00
2013-11-8,46.6,42.6,38.8,44.2,40.4,36.7,93,92,90,29.69,29.57,2,0,2,0.10
2013-11-9,45.7,40.8,37.0,41.6,38.1,34.9,92,90,84,29.68,29.57,0,0,0,0.00
2013-11-10,48.7,41.0,36.3,40.5,36.9,32.7,92,86,71,30.19,29.61,1,0,1,0.02
2013-11-11,55.9,54.4,50.4,53.9,52.5,48.7,94,94,93,30.14,30.10,0,0,0,0.20
2013-11-12,42.3,39.1,36.5,37.2,35.3,33.3,89,86,82,30.50,30.45,0,0,0,0.04
2013-11-13,49.6,46.9,45.1,42.7,41.5,40.8,87,81,75,30.48,30.12,2,0,2,0.00
2013-11-15,46.8,46.3,45.7,42.6,42.5,42.0,88,86,86,30.51,30.49,0,0,0,0.00
2013-11-16,50.7,46.4,41.9,47.9,43.1,38.9,93,88,81,30.49,30.37,0,0,0,0.02
2013-11-17,50.7,46.9,41.7,48.5,44.6,38.7,93,92,89,30.37,30.17,0,0,0,0.00
2013-11-18,43.7,41.3,39.6,41.5,38.9,37.2,92,91,91,29.83,29.80,0,0,0,0.06
2013-11-19,32.7,30.4,29.3,29.8,26.9,25.5,89,87,84,30.08,30.02,0,0,0,0.00
2013-11-20,38.5,38.1,37.9,34.9,34.6,34.4,88,87,86,29.48,29.47,1,0,1,0.66
2013-11-21,41.4,39.4,37.6,37.2,35.9,34.1,90,87,85,30.01,29.91,0,0,0,0.14
2013-11-22,38.1,35.2,32.9,33.8,31.9,30.3,90,88,84,30.24,30.21,0,0,0,0.00
2013-11-23,40.3,33.9,29.1,37.3,31.4,26.6,93,90,86,30.37,30.22,0,0,0,0.00
2013-11-24,44.4,39.5,29.5,40.8,36.0,27.2,92,87,79,30.60,30.36,0,0,0,0.00
2013-11-25,36.3,33.8,30.7,32.2,30.4,27.8,89,87,85,30.73,30.70,0,0,0,0.00
2013-11-26,44.2,43.2,34.3,40.6,39.6,32.1,92,87,87,30.70,30.58,0,0,0,0.00
2013-11-27,48.6,47.9,46.6,44.9,44.2,42.9,88,87,86,30.54,30.52,0,0,0,0.00
2013-11-28,47.1,46.6,46.0,44.0,43.4,43.0,90,89,86,30.56,30.52,0,0,0,0.00
2013-11-29,44.6,43.3,42.6,39.1,38.7,38.1,86,84,80,30.23,30.20,2,0,2,0.02
2013-11-30,44.8,40.9,37.2,40.4,35.6,33.0,87,81,71,30.45,30.22,0,0,0,0.00
2013-12-1,50.2,45.1,38.3,45.2,41.0,34.9,91,85,82,30.58,30.42,0,0,0,0.00
2013-12-2,46.2,43.1,41.9,43.0,40.8,39.5,92,91,83,30.58,30.54,0,0,0,0.00